Погода в Каменке

Россия / Липецкая область     52°22′47″N   38°45′53″E
темп.,
°C
ветер,
м/с
пор.,
м/с
влажн.,
%
обл.,
%
осадки,
мм/ч
давл.,
гПа
погр.,
м
11 мая, вт
вт1100:00+8ссв8198697 0.0 1019513
03:00+8ссв91888100 0.0 1018467
06:00+9ссв9188996 0.0 1018571
09:00+12св81483100 0.0 1019687
12:00+9вюв61393100 1.1 1021641
15:00+13в69662 2.4 10221274
18:00+13вюв610675 0.0 10231197
21:00+9юв612825 0.0 1025565
12 мая, ср
ср1200:00+6вюв37935 0.0 1026151
03:00+5всв359192 0.0 102687
06:00+7св4989100 0.0 1025261
09:00+9всв51083100 0.1 1024547
12:00+9св4589100 2.0 1022432
15:00+11в337761 3.0 1020804
18:00+12в587534 0.0 1019658
21:00+10в71581100 0.0 1018572
13 мая, чт
чт1300:00+10вюв61387100 0.2 1018437
03:00+8вюв3796100 0.2 1019151
06:00+9вюв3592100 0.0 1019133
09:00+14юв23685 0.0 1018502
12:00+18юв235681 0.0 10171333
15:00+19юв355474 0.3 10161461
18:00+18ююв36705 0.5 1016374
21:00+13вюв46874 0.7 1017101
14 мая, пт
пт1400:00+12вюв4995100 0.0 1017158
03:00+12вюв4995100 0.0 1017161
06:00+13вюв4119221 0.0 1017277
09:00+18вюв61078100 0.1 1016544
12:00+23юв7963100 0.0 10151255
15:00+25ююв7115915 0.1 10131891
18:00+23ююв497274 1.9 1012349
21:00+19юв3886100 2.3 1012149
15 мая, сб
сб1500:00+17юв3491100 0.1 101161
03:00+16з3597100 4.1 1013106
06:00+16в4896100 2.1 1012236
09:00+19юв4788100 2.6 1011341
12:00+22ю71075100 2.3 10111165
15:00+22ююв6869100 0.7 10111245
18:00
21:00+13ююв359090 3.9 101093